﻿Дата;Google;AdRiver
2019-03-17;1;0
2019-03-16;4;0
2019-03-15;5;0
2019-03-14;1;0
2019-03-12;6;0
2019-03-11;1;0
2019-03-09;1;0
2019-03-08;1;0
2019-03-07;1;0
2019-03-06;3;0
2019-02-28;1;0
2018-09-12;1;0
2018-08-30;1;0
2016-02-11;3;0
2016-02-10;1;0
2016-02-08;4;0
2016-02-04;2;0
2016-02-03;2;0
2016-02-02;2;0
2016-02-01;3;0
2016-01-31;5;0
2016-01-30;3;0
2016-01-29;2;0
2015-12-11;1;0
2015-12-10;3;0
2015-12-09;1;0
2015-12-08;1;0
2015-12-07;3;0
2015-12-06;3;0
2015-12-05;1;0
2015-12-04;3;0
2015-12-03;1;0
2015-11-20;1;0
2015-11-19;5;0
2015-11-18;6;0
2015-11-17;10;0
2015-11-16;3;0
2015-11-15;6;0
2015-11-14;2;0
2015-11-13;2;0
2015-11-12;3;0
2015-11-11;2;0
2015-11-10;5;0
2015-11-09;5;0
2015-11-08;2;0
2015-11-07;1;0
2015-11-06;8;0
2015-11-05;5;0
2015-11-04;4;0
2015-11-03;2;0
2015-11-02;4;0
2015-10-27;1;0
2015-10-25;2;0
2015-10-24;6;0
2015-10-23;8;0
2015-10-22;8;0
2015-10-21;8;0
2015-10-20;8;0
2015-10-19;6;0
2015-10-18;6;0
2015-10-17;7;0
2015-10-16;7;0
2015-10-15;9;0
2015-10-14;11;0
2015-10-13;20;0
2015-10-12;16;0
2015-10-11;21;0
2015-10-10;26;0
2015-10-09;20;0
2015-10-08;5;0
2015-10-07;8;0
2015-10-06;12;0
2015-10-05;23;0
2015-10-04;25;0
2015-10-03;16;0
2015-10-02;22;0
2015-10-01;16;0
2015-09-30;10;0
2015-09-29;4;0
2015-09-07;3;0
2015-09-06;15;0
2015-09-05;17;0
2015-08-31;1;0
2015-08-26;1;0
2015-08-25;9;0
2015-08-24;25;0
2015-08-23;9;0
2015-08-22;12;0
2015-08-21;13;0
2015-08-20;19;0
2015-08-19;10;0
2015-08-18;7;0
2015-08-17;16;0
2015-08-16;15;0
2015-08-15;6;0
2015-08-14;5;0
2015-08-11;0;1
2015-08-04;0;1
2015-04-24;0;1
2015-04-16;0;1
